GALAXY 17 (G-17)

Last updated on Thu Nov 21 2024 00:02:40 GMT+0000 (Coordinated Universal Time)

1 31307U 07016B 24325.32618860 -.00000204 00000+0 00000+0 0 9993 2 31307 1.5131 87.2341 0006527 177.9612 187.0985 1.00271264 64051
UTC large
Height (km)
Speed (km/s)
/
Latitude / Longitude
Inclination (degrees)
Orbital Period (minutes)
Azimuth
Elevation
Range (km)
Doppler Factor

Next 0 passes for location: London (51.5072 / 0.1276)

Sorry there are no passes over London.